| time (UTC) | temp C | wind direction | speed KPH | gust KPH | rain 1hr cm | rain 24hr cm | rain mn cm | humidity % | barometer mb |
| 20260510073254 | 8 | 8 | 6.4 | 8.0 | 0.00 | 0.00 | 0.00 | 99 | 1013.0 |
| 20260510072749 | 8 | 53 | 1.6 | 3.2 | 0.00 | 0.00 | 0.00 | 99 | 1012.9 |
| 20260510072246 | 8 | 72 | 0.0 | 0.0 | 0.00 | 0.00 | 0.00 | 99 | 1012.3 |
| 20260510071743 | 8 | 87 | 0.0 | 0.0 | 0.00 | 0.00 | 0.00 | 99 | 1012.6 |
| 20260510071239 | 8 | 87 | 1.6 | 1.6 | 0.00 | 0.00 | 0.00 | 99 | 1012.4 |
| 20260510070738 | 8 | 84 | 1.6 | 1.6 | 0.00 | 0.00 | 0.00 | 99 | 1012.6 |
| 20260510070235 | 8 | 72 | 0.0 | 0.0 | 0.00 | 0.00 | 0.00 | 99 | 1012.4 |
| 20260510065729 | 8 | 10 | 1.6 | 3.2 | 0.00 | 0.00 | 0.00 | 99 | 1012.2 |
| 20260510065226 | 7 | 359 | 0.0 | 0.0 | 0.00 | 0.00 | 0.00 | 99 | 1012.4 |
| 20260510064723 | 7 | 359 | 0.0 | 0.0 | 0.00 | 0.00 | 0.00 | 99 | 1012.3 |
| 20260510064221 | 7 | 359 | 0.0 | 0.0 | 0.00 | 0.00 | 0.00 | 99 | 1012.1 |
| 20260510063717 | 8 | 358 | 0.0 | 0.0 | 0.00 | 0.00 | 0.00 | 99 | 1011.9 |
| 20260510063213 | 8 | 357 | 0.0 | 0.0 | 0.00 | 0.00 | 0.00 | 99 | 1012.0 |
| 20260510062710 | 7 | 356 | 0.0 | 0.0 | 0.00 | 0.00 | 0.00 | 99 | 1011.9 |
| 20260510062206 | 8 | 353 | 0.0 | 1.6 | 0.00 | 0.00 | 0.00 | 99 | 1012.0 |
| 20260510061701 | 8 | 71 | 1.6 | 1.6 | 0.00 | 0.00 | 0.00 | 99 | 1012.0 |
| 20260510061159 | 8 | 71 | 0.0 | 0.0 | 0.00 | 0.00 | 0.00 | 99 | 1011.9 |
| 20260510060655 | 8 | 71 | 0.0 | 0.0 | 0.00 | 0.00 | 0.00 | 99 | 1012.0 |
| 20260510060152 | 8 | 71 | 0.0 | 0.0 | 0.00 | 0.00 | 0.00 | 99 | 1012.1 |
| 20260510055648 | 8 | 71 | 0.0 | 0.0 | 0.00 | 0.00 | 0.00 | 99 | 1012.0 |
| 20260510055146 | 8 | 71 | 0.0 | 0.0 | 0.00 | 0.00 | 0.00 | 99 | 1012.2 |
| 20260510054641 | 8 | 71 | 0.0 | 0.0 | 0.00 | 0.00 | 0.00 | 99 | 1012.0 |
| 20260510054138 | 8 | 71 | 0.0 | 0.0 | 0.00 | 0.00 | 0.00 | 99 | 1012.2 |
| 20260510053636 | 9 | 70 | 0.0 | 1.6 | 0.00 | 0.00 | 0.00 | 99 | 1012.1 |
| 20260510053133 | 8 | 70 | 0.0 | 0.0 | 0.00 | 0.00 | 0.00 | 99 | 1012.0 |
| 20260510052629 | 9 | 70 | 0.0 | 0.0 | 0.00 | 0.00 | 0.00 | 99 | 1012.2 |
| 20260510052126 | 9 | 70 | 0.0 | 0.0 | 0.00 | 0.00 | 0.00 | 99 | 1012.0 |
| 20260510051621 | 9 | 70 | 0.0 | 0.0 | 0.00 | 0.00 | 0.00 | 99 | 1012.1 |
| 20260510051118 | 9 | 70 | 0.0 | 0.0 | 0.00 | 0.00 | 0.00 | 99 | 1011.9 |
| 20260510050615 | 9 | 70 | 0.0 | 0.0 | 0.00 | 0.00 | 0.00 | 99 | 1012.1 |
| 20260510050112 | 9 | 70 | 0.0 | 0.0 | 0.00 | 0.00 | 0.00 | 99 | 1012.5 |
| 20260510045604 | 9 | 70 | 0.0 | 0.0 | 0.00 | 0.00 | 0.00 | 99 | 1012.3 |
| 20260510045059 | 9 | 70 | 0.0 | 0.0 | 0.00 | 0.00 | 0.00 | 99 | 1012.2 |
| 20260510044555 | 9 | 70 | 0.0 | 0.0 | 0.00 | 0.00 | 0.00 | 99 | 1012.4 |
| 20260510044053 | 9 | 70 | 0.0 | 0.0 | 0.00 | 0.00 | 0.00 | 99 | 1012.3 |
| 20260510043548 | 9 | 70 | 0.0 | 0.0 | 0.00 | 0.00 | 0.00 | 99 | 1012.3 |
| 20260510043045 | 10 | 70 | 0.0 | 0.0 | 0.00 | 0.00 | 0.00 | 99 | 1012.5 |
| 20260510042539 | 10 | 70 | 0.0 | 0.0 | 0.00 | 0.00 | 0.00 | 99 | 1012.4 |
| 20260510042034 | 10 | 70 | 0.0 | 0.0 | 0.00 | 0.00 | 0.00 | 99 | 1012.3 |
| 20260510041531 | 10 | 71 | 0.0 | 0.0 | 0.00 | 0.00 | 0.00 | 99 | 1012.5 |
| 20260510041028 | 9 | 70 | 0.0 | 0.0 | 0.00 | 0.00 | 0.00 | 99 | 1012.3 |
| 20260510040520 | 10 | 70 | 0.0 | 0.0 | 0.00 | 0.00 | 0.00 | 99 | 1012.5 |
| 20260510040015 | 10 | 70 | 0.0 | 0.0 | 0.00 | 0.00 | 0.00 | 99 | 1012.6 |
| 20260510035512 | 10 | 70 | 0.0 | 0.0 | 0.00 | 0.00 | 0.00 | 99 | 1012.1 |
| 20260510035011 | 10 | 70 | 0.0 | 0.0 | 0.00 | 0.00 | 0.00 | 99 | 1012.5 |
| 20260510034511 | 10 | 70 | 0.0 | 0.0 | 0.00 | 0.00 | 0.00 | 99 | 1012.4 |
| 20260510034006 | 10 | 70 | 0.0 | 0.0 | 0.00 | 0.00 | 0.00 | 99 | 1012.4 |
| 20260510033503 | 10 | 70 | 0.0 | 0.0 | 0.00 | 0.00 | 0.00 | 99 | 1012.6 |
| 20260510033001 | 10 | 70 | 0.0 | 0.0 | 0.00 | 0.00 | 0.00 | 99 | 1012.5 |
| 20260510032457 | 10 | 70 | 0.0 | 0.0 | 0.00 | 0.00 | 0.00 | 99 | 1012.4 |
| 20260510031957 | 10 | 70 | 0.0 | 0.0 | 0.00 | 0.00 | 0.00 | 99 | 1012.6 |
| 20260510031453 | 11 | 70 | 0.0 | 1.6 | 0.00 | 0.00 | 0.00 | 99 | 1012.3 |
| 20260510030949 | 11 | 70 | 0.0 | 0.0 | 0.00 | 0.00 | 0.00 | 99 | 1012.4 |
| 20260510030444 | 11 | 70 | 0.0 | 0.0 | 0.00 | 0.00 | 0.00 | 99 | 1012.5 |
| 20260510025942 | 11 | 70 | 0.0 | 0.0 | 0.00 | 0.00 | 0.00 | 99 | 1012.6 |
| 20260510025439 | 11 | 70 | 0.0 | 0.0 | 0.00 | 0.00 | 0.00 | 99 | 1012.1 |
| 20260510024937 | 11 | 71 | 0.0 | 0.0 | 0.00 | 0.00 | 0.00 | 99 | 1012.3 |
| 20260510024433 | 11 | 71 | 0.0 | 0.0 | 0.00 | 0.00 | 0.00 | 99 | 1012.3 |
| 20260510023928 | 11 | 70 | 0.0 | 0.0 | 0.00 | 0.00 | 0.00 | 98 | 1012.5 |
| 20260510023425 | 11 | 71 | 0.0 | 0.0 | 0.00 | 0.00 | 0.00 | 98 | 1012.1 |
| 20260510022922 | 11 | 71 | 0.0 | 0.0 | 0.00 | 0.00 | 0.00 | 98 | 1012.2 |
| 20260510022421 | 11 | 71 | 0.0 | 0.0 | 0.00 | 0.00 | 0.00 | 98 | 1012.1 |
| 20260510021920 | 11 | 71 | 0.0 | 0.0 | 0.00 | 0.00 | 0.00 | 97 | 1012.0 |
| 20260510021419 | 11 | 71 | 0.0 | 0.0 | 0.00 | 0.00 | 0.00 | 97 | 1012.1 |
| 20260510020915 | 11 | 71 | 0.0 | 0.0 | 0.00 | 0.00 | 0.00 | 97 | 1012.0 |
| 20260510020410 | 11 | 71 | 0.0 | 0.0 | 0.00 | 0.00 | 0.00 | 97 | 1011.9 |
| 20260510015906 | 12 | 71 | 0.0 | 0.0 | 0.00 | 0.00 | 0.00 | 97 | 1011.8 |
| 20260510015402 | 12 | 71 | 0.0 | 0.0 | 0.00 | 0.00 | 0.00 | 97 | 1011.8 |
| 20260510014857 | 12 | 71 | 0.0 | 0.0 | 0.00 | 0.00 | 0.00 | 96 | 1012.0 |
| 20260510014355 | 12 | 71 | 0.0 | 0.0 | 0.00 | 0.00 | 0.00 | 95 | 1011.7 |
| 20260510013851 | 12 | 70 | 0.0 | 0.0 | 0.00 | 0.00 | 0.00 | 94 | 1011.7 |
| 20260510013346 | 12 | 70 | 0.0 | 0.0 | 0.00 | 0.00 | 0.00 | 94 | 1011.7 |
| 20260510012841 | 12 | 70 | 0.0 | 0.0 | 0.00 | 0.00 | 0.00 | 93 | 1011.7 |
| 20260510012341 | 12 | 71 | 0.0 | 0.0 | 0.00 | 0.00 | 0.00 | 93 | 1011.7 |
| 20260510011836 | 13 | 71 | 0.0 | 0.0 | 0.00 | 0.00 | 0.00 | 92 | 1011.6 |
| 20260510011332 | 13 | 71 | 0.0 | 0.0 | 0.00 | 0.00 | 0.00 | 92 | 1011.4 |
| 20260510010829 | 13 | 71 | 0.0 | 0.0 | 0.00 | 0.00 | 0.00 | 92 | 1011.5 |
| 20260510010326 | 13 | 71 | 0.0 | 0.0 | 0.00 | 0.00 | 0.00 | 92 | 1011.4 |
| 20260510005822 | 13 | 71 | 0.0 | 0.0 | 0.00 | 0.00 | 0.00 | 92 | 1011.3 |
| 20260510005319 | 13 | 71 | 0.0 | 0.0 | 0.00 | 0.00 | 0.00 | 91 | 1011.2 |
| 20260510004817 | 13 | 71 | 0.0 | 0.0 | 0.00 | 0.00 | 0.00 | 89 | 1011.0 |
| 20260510004314 | 14 | 71 | 0.0 | 0.0 | 0.00 | 0.00 | 0.00 | 89 | 1011.0 |
| 20260510003812 | 14 | 71 | 1.6 | 1.6 | 0.00 | 0.00 | 0.00 | 89 | 1011.0 |
| 20260510003308 | 14 | 72 | 0.0 | 0.0 | 0.00 | 0.00 | 0.00 | 88 | 1010.9 |
| 20260510002807 | 15 | 72 | 0.0 | 1.6 | 0.00 | 0.00 | 0.00 | 87 | 1011.1 |
| 20260510002307 | 15 | 65 | 1.6 | 1.6 | 0.00 | 0.00 | 0.00 | 86 | 1011.0 |
| 20260510001801 | 15 | 62 | 1.6 | 1.6 | 0.00 | 0.00 | 0.00 | 86 | 1010.8 |
| 20260510001259 | 15 | 71 | 1.6 | 1.6 | 0.00 | 0.00 | 0.00 | 85 | 1011.0 |
| 20260510000754 | 15 | 90 | 1.6 | 1.6 | 0.00 | 0.00 | 0.00 | 85 | 1011.0 |
| 20260510000253 | 15 | 72 | 0.0 | 1.6 | 0.00 | 0.00 | 0.00 | 84 | 1010.8 |
| 20260509235749 | 16 | 71 | 1.6 | 3.2 | 0.00 | 0.00 | 0.00 | 83 | 1010.7 |
| 20260509235246 | 16 | 78 | 1.6 | 1.6 | 0.00 | 0.00 | 0.00 | 83 | 1011.0 |
| 20260509234741 | 16 | 71 | 0.0 | 1.6 | 0.00 | 0.00 | 0.00 | 82 | 1010.9 |
| 20260509234238 | 16 | 69 | 1.6 | 1.6 | 0.00 | 0.00 | 0.00 | 81 | 1010.9 |
| 20260509233737 | 16 | 72 | 3.2 | 4.8 | 0.00 | 0.00 | 0.00 | 81 | 1010.8 |
| 20260509233234 | 16 | 57 | 1.6 | 1.6 | 0.00 | 0.00 | 0.00 | 80 | 1010.8 |
| 20260509232730 | 16 | 43 | 3.2 | 4.8 | 0.00 | 0.00 | 0.00 | 79 | 1010.8 |
| 20260509232227 | 17 | 60 | 1.6 | 1.6 | 0.00 | 0.00 | 0.00 | 79 | 1010.9 |
| 20260509231724 | 17 | 71 | 1.6 | 3.2 | 0.00 | 0.00 | 0.00 | 79 | 1010.7 |
| 20260509231221 | 17 | 57 | 1.6 | 1.6 | 0.00 | 0.00 | 0.00 | 78 | 1010.7 |
| 20260509230719 | 17 | 52 | 1.6 | 1.6 | 0.00 | 0.00 | 0.00 | 78 | 1010.8 |
| 20260509230215 | 17 | 25 | 3.2 | 3.2 | 0.00 | 0.00 | 0.00 | 78 | 1010.9 |
| 20260509225710 | 17 | 43 | 3.2 | 3.2 | 0.00 | 0.00 | 0.00 | 76 | 1010.8 |
| 20260509225206 | 17 | 50 | 1.6 | 1.6 | 0.00 | 0.00 | 0.00 | 76 | 1010.8 |
| 20260509224702 | 17 | 64 | 1.6 | 1.6 | 0.00 | 0.00 | 0.00 | 77 | 1010.7 |
| 20260509224159 | 17 | 40 | 1.6 | 1.6 | 0.00 | 0.00 | 0.00 | 76 | 1010.8 |
| 20260509223656 | 17 | 64 | 3.2 | 3.2 | 0.00 | 0.00 | 0.00 | 75 | 1010.9 |
| 20260509223153 | 18 | 46 | 4.8 | 4.8 | 0.00 | 0.00 | 0.00 | 75 | 1010.7 |
| 20260509222650 | 17 | 54 | 1.6 | 1.6 | 0.00 | 0.00 | 0.00 | 76 | 1010.7 |
| 20260509222146 | 17 | 16 | 1.6 | 3.2 | 0.00 | 0.00 | 0.00 | 76 | 1010.8 |
| 20260509221642 | 17 | 40 | 0.0 | 1.6 | 0.00 | 0.00 | 0.00 | 76 | 1010.4 |
| 20260509221138 | 17 | 71 | 1.6 | 1.6 | 0.00 | 0.00 | 0.00 | 75 | 1010.7 |
| 20260509220634 | 17 | 49 | 4.8 | 4.8 | 0.00 | 0.00 | 0.00 | 76 | 1010.8 |
| 20260509220130 | 17 | 32 | 1.6 | 1.6 | 0.00 | 0.00 | 0.00 | 77 | 1010.7 |
| 20260509215627 | 17 | 70 | 0.0 | 1.6 | 0.00 | 0.00 | 0.00 | 77 | 1010.6 |
| 20260509215123 | 17 | 54 | 3.2 | 3.2 | 0.00 | 0.00 | 0.00 | 78 | 1010.8 |
| 20260509214621 | 17 | 87 | 8.0 | 9.7 | 0.00 | 0.00 | 0.00 | 77 | 1010.8 |
| 20260509214117 | 17 | 6 | 6.4 | 8.0 | 0.00 | 0.00 | 0.00 | 77 | 1011.1 |
| 20260509213613 | 17 | 33 | 1.6 | 1.6 | 0.00 | 0.00 | 0.00 | 78 | 1010.8 |
| 20260509213110 | 17 | 26 | 4.8 | 8.0 | 0.00 | 0.00 | 0.00 | 77 | 1010.9 |
| 20260509212607 | 16 | 34 | 4.8 | 4.8 | 0.00 | 0.00 | 0.00 | 78 | 1010.8 |
| 20260509212104 | 17 | 15 | 3.2 | 3.2 | 0.00 | 0.00 | 0.00 | 77 | 1011.2 |
| 20260509211600 | 17 | 22 | 1.6 | 3.2 | 0.00 | 0.00 | 0.00 | 79 | 1010.9 |
| 20260509211057 | 16 | 31 | 4.8 | 8.0 | 0.00 | 0.00 | 0.00 | 77 | 1011.0 |
| 20260509210554 | 16 | 28 | 3.2 | 4.8 | 0.00 | 0.00 | 0.00 | 78 | 1011.1 |
| 20260509210050 | 16 | 52 | 3.2 | 4.8 | 0.00 | 0.00 | 0.00 | 78 | 1010.8 |
| 20260509205544 | 16 | 28 | 4.8 | 4.8 | 0.00 | 0.00 | 0.00 | 78 | 1011.0 |
| 20260509205039 | 16 | 42 | 3.2 | 3.2 | 0.00 | 0.00 | 0.00 | 77 | 1011.0 |
| 20260509204536 | 16 | 40 | 4.8 | 4.8 | 0.00 | 0.00 | 0.00 | 78 | 1011.0 |
| 20260509204032 | 16 | 22 | 4.8 | 8.0 | 0.00 | 0.00 | 0.00 | 76 | 1011.1 |
| 20260509203528 | 16 | 51 | 1.6 | 1.6 | 0.00 | 0.00 | 0.00 | 78 | 1011.1 |
| 20260509203027 | 16 | 18 | 6.4 | 8.0 | 0.00 | 0.00 | 0.00 | 77 | 1011.0 |
| 20260509202521 | 16 | 34 | 3.2 | 4.8 | 0.00 | 0.00 | 0.00 | 77 | 1011.0 |
| 20260509202017 | 16 | 34 | 3.2 | 3.2 | 0.00 | 0.00 | 0.00 | 79 | 1011.0 |
| 20260509201512 | 16 | 49 | 3.2 | 3.2 | 0.00 | 0.00 | 0.00 | 78 | 1011.1 |
| 20260509201009 | 16 | 23 | 4.8 | 4.8 | 0.00 | 0.00 | 0.00 | 78 | 1011.2 |
| 20260509200504 | 16 | 41 | 1.6 | 3.2 | 0.00 | 0.00 | 0.00 | 78 | 1011.0 |
| 20260509200001 | 16 | 39 | 4.8 | 4.8 | 0.00 | 0.00 | 0.00 | 77 | 1011.4 |
| 20260509195456 | 16 | 71 | 4.8 | 4.8 | 0.00 | 0.00 | 0.00 | 75 | 1011.3 |
| 20260509194956 | 16 | 40 | 0.0 | 1.6 | 0.00 | 0.00 | 0.00 | 75 | 1011.4 |
| 20260509194451 | 17 | 65 | 4.8 | 4.8 | 0.00 | 0.00 | 0.00 | 74 | 1011.3 |
| 20260509193948 | 17 | 47 | 0.0 | 0.0 | 0.00 | 0.00 | 0.00 | 75 | 1011.4 |
| 20260509193443 | 17 | 56 | 3.2 | 3.2 | 0.00 | 0.00 | 0.00 | 76 | 1011.3 |
| 20260509192939 | 17 | 69 | 3.2 | 3.2 | 0.00 | 0.00 | 0.00 | 74 | 1011.2 |
| 20260509192436 | 17 | 68 | 0.0 | 0.0 | 0.00 | 0.00 | 0.00 | 73 | 1011.4 |
| 20260509191931 | 17 | 64 | 0.0 | 0.0 | 0.00 | 0.00 | 0.00 | 74 | 1011.5 |
| 20260509191426 | 17 | 87 | 0.0 | 0.0 | 0.00 | 0.00 | 0.00 | 71 | 1011.5 |
| 20260509190923 | 16 | 269 | 1.6 | 1.6 | 0.00 | 0.00 | 0.00 | 72 | 1011.5 |
| 20260509190420 | 17 | 45 | 1.6 | 1.6 | 0.00 | 0.00 | 0.00 | 75 | 1011.4 |
| 20260509185918 | 16 | 111 | 1.6 | 3.2 | 0.00 | 0.00 | 0.00 | 75 | 1011.4 |
| 20260509185415 | 16 | 54 | 4.8 | 4.8 | 0.00 | 0.00 | 0.00 | 75 | 1011.2 |
| 20260509184911 | 17 | 87 | 4.8 | 8.0 | 0.00 | 0.00 | 0.00 | 74 | 1011.4 |
| 20260509184408 | 16 | 96 | 4.8 | 8.0 | 0.00 | 0.00 | 0.00 | 75 | 1011.6 |
| 20260509183905 | 16 | 66 | 3.2 | 4.8 | 0.00 | 0.00 | 0.00 | 75 | 1011.7 |
| 20260509183359 | 16 | 81 | 8.0 | 9.7 | 0.00 | 0.00 | 0.00 | 75 | 1012.0 |
| 20260509182856 | 16 | 94 | 4.8 | 8.0 | 0.00 | 0.00 | 0.00 | 79 | 1011.9 |
| 20260509182353 | 16 | 34 | 1.6 | 1.6 | 0.00 | 0.00 | 0.00 | 79 | 1011.9 |
| 20260509181851 | 16 | 83 | 3.2 | 3.2 | 0.00 | 0.00 | 0.00 | 78 | 1012.1 |
| 20260509181347 | 16 | 34 | 1.6 | 3.2 | 0.00 | 0.00 | 0.00 | 82 | 1012.2 |
| 20260509180845 | 16 | 32 | 1.6 | 3.2 | 0.00 | 0.00 | 0.00 | 80 | 1012.4 |
| 20260509180340 | 15 | 45 | 1.6 | 1.6 | 0.00 | 0.00 | 0.00 | 80 | 1012.6 |
| 20260509175838 | 16 | 9 | 6.4 | 8.0 | 0.00 | 0.00 | 0.00 | 77 | 1012.8 |
| 20260509175334 | 16 | 33 | 1.6 | 1.6 | 0.00 | 0.00 | 0.00 | 76 | 1013.0 |
| 20260509174830 | 16 | 323 | 4.8 | 4.8 | 0.00 | 0.00 | 0.00 | 74 | 1012.9 |
| 20260509174326 | 16 | 40 | 3.2 | 3.2 | 0.00 | 0.00 | 0.00 | 73 | 1012.7 |
| 20260509173822 | 16 | 28 | 3.2 | 3.2 | 0.00 | 0.00 | 0.00 | 73 | 1012.8 |
| 20260509173317 | 16 | 18 | 0.0 | 0.0 | 0.00 | 0.00 | 0.00 | 72 | 1012.7 |
| 20260509172814 | 16 | 34 | 1.6 | 1.6 | 0.00 | 0.00 | 0.00 | 73 | 1012.8 |
| 20260509172311 | 15 | 37 | 4.8 | 4.8 | 0.00 | 0.00 | 0.00 | 73 | 1012.7 |
| 20260509171806 | 16 | 9 | 6.4 | 8.0 | 0.00 | 0.00 | 0.00 | 72 | 1012.6 |
| 20260509171303 | 16 | 34 | 3.2 | 3.2 | 0.00 | 0.00 | 0.00 | 72 | 1012.8 |
| 20260509170759 | 16 | 13 | 3.2 | 4.8 | 0.00 | 0.00 | 0.00 | 73 | 1012.9 |
| 20260509170255 | 16 | 44 | 3.2 | 3.2 | 0.00 | 0.00 | 0.00 | 71 | 1012.8 |
| 20260509165754 | 16 | 39 | 1.6 | 3.2 | 0.00 | 0.00 | 0.00 | 72 | 1012.8 |
| 20260509165249 | 16 | 39 | 0.0 | 1.6 | 0.00 | 0.00 | 0.00 | 71 | 1012.9 |
| 20260509164746 | 16 | 15 | 4.8 | 8.0 | 0.00 | 0.00 | 0.00 | 68 | 1012.8 |
| 20260509164242 | 16 | 9 | 3.2 | 4.8 | 0.00 | 0.00 | 0.00 | 70 | 1012.9 |
| 20260509163739 | 16 | 35 | 4.8 | 4.8 | 0.00 | 0.00 | 0.00 | 69 | 1012.8 |
| 20260509163235 | 16 | 5 | 3.2 | 3.2 | 0.00 | 0.00 | 0.00 | 69 | 1012.8 |
| 20260509162734 | 16 | 358 | 6.4 | 8.0 | 0.00 | 0.00 | 0.00 | 69 | 1013.2 |
| 20260509162228 | 16 | 310 | 4.8 | 4.8 | 0.00 | 0.00 | 0.00 | 67 | 1013.0 |
| 20260509161724 | 16 | 60 | 0.0 | 1.6 | 0.00 | 0.00 | 0.00 | 66 | 1013.0 |
| 20260509161220 | 16 | 344 | 3.2 | 3.2 | 0.00 | 0.00 | 0.00 | 65 | 1012.9 |
| 20260509160715 | 16 | 306 | 4.8 | 4.8 | 0.00 | 0.00 | 0.00 | 70 | 1013.1 |
| 20260509160212 | 16 | 304 | 4.8 | 4.8 | 0.00 | 0.00 | 0.00 | 73 | 1012.9 |
| 20260509155707 | 16 | 273 | 3.2 | 4.8 | 0.00 | 0.00 | 0.00 | 74 | 1012.8 |
| 20260509155204 | 16 | 25 | 1.6 | 1.6 | 0.00 | 0.00 | 0.00 | 75 | 1013.0 |
| 20260509154700 | 15 | 25 | 4.8 | 4.8 | 0.00 | 0.00 | 0.00 | 76 | 1013.1 |
| 20260509154157 | 15 | 23 | 1.6 | 3.2 | 0.00 | 0.00 | 0.00 | 75 | 1013.0 |
| 20260509153654 | 15 | 18 | 1.6 | 3.2 | 0.00 | 0.00 | 0.00 | 75 | 1013.1 |
| 20260509153150 | 15 | 313 | 4.8 | 4.8 | 0.00 | 0.00 | 0.00 | 74 | 1013.0 |
| 20260509152646 | 14 | 63 | 3.2 | 3.2 | 0.00 | 0.00 | 0.00 | 81 | 1013.1 |
| 20260509152144 | 14 | 36 | 3.2 | 3.2 | 0.00 | 0.00 | 0.00 | 84 | 1013.1 |
| 20260509151640 | 13 | 98 | 1.6 | 1.6 | 0.00 | 0.00 | 0.00 | 86 | 1013.6 |
| 20260509151137 | 13 | 168 | 1.6 | 1.6 | 0.00 | 0.00 | 0.00 | 86 | 1013.2 |
| 20260509150635 | 13 | 69 | 3.2 | 3.2 | 0.00 | 0.00 | 0.00 | 86 | 1012.8 |
| 20260509150133 | 13 | 50 | 4.8 | 4.8 | 0.00 | 0.00 | 0.00 | 87 | 1013.2 |
| 20260509145629 | 13 | 68 | 1.6 | 3.2 | 0.00 | 0.00 | 0.00 | 85 | 1013.5 |
| 20260509145124 | 13 | 76 | 1.6 | 1.6 | 0.00 | 0.00 | 0.00 | 85 | 1013.8 |
| 20260509144621 | 13 | 76 | 0.0 | 1.6 | 0.00 | 0.00 | 0.00 | 86 | 1013.8 |
| 20260509144119 | 13 | 40 | 3.2 | 3.2 | 0.00 | 0.00 | 0.00 | 83 | 1013.6 |
| 20260509143616 | 13 | 27 | 0.0 | 0.0 | 0.00 | 0.00 | 0.00 | 84 | 1013.8 |
| 20260509143113 | 13 | 27 | 0.0 | 0.0 | 0.00 | 0.00 | 0.00 | 83 | 1013.6 |
| 20260509142608 | 13 | 28 | 1.6 | 1.6 | 0.00 | 0.00 | 0.00 | 82 | 1013.7 |
| 20260509142105 | 13 | 50 | 0.0 | 0.0 | 0.00 | 0.00 | 0.00 | 82 | 1013.4 |
| 20260509141601 | 13 | 34 | 3.2 | 3.2 | 0.00 | 0.00 | 0.00 | 81 | 1013.4 |
| 20260509141057 | 13 | 33 | 0.0 | 0.0 | 0.00 | 0.00 | 0.00 | 82 | 1013.5 |
| 20260509140555 | 13 | 131 | 1.6 | 1.6 | 0.00 | 0.00 | 0.00 | 83 | 1013.5 |
| 20260509140052 | 13 | 54 | 0.0 | 0.0 | 0.00 | 0.00 | 0.00 | 83 | 1013.4 |
| 20260509135549 | 13 | 54 | 1.6 | 1.6 | 0.00 | 0.00 | 0.00 | 82 | 1013.2 |
| 20260509135047 | 13 | 54 | 1.6 | 1.6 | 0.00 | 0.00 | 0.00 | 80 | 1013.1 |
| 20260509134544 | 13 | 96 | 1.6 | 1.6 | 0.00 | 0.00 | 0.00 | 80 | 1013.1 |
| 20260509134041 | 13 | 51 | 0.0 | 0.0 | 0.00 | 0.00 | 0.00 | 79 | 1012.9 |
| 20260509133538 | 13 | 118 | 1.6 | 1.6 | 0.00 | 0.00 | 0.00 | 78 | 1013.1 |
| 20260509133036 | 13 | 48 | 0.0 | 1.6 | 0.00 | 0.00 | 0.00 | 77 | 1012.8 |
| 20260509132533 | 13 | 169 | 0.0 | 0.0 | 0.00 | 0.00 | 0.00 | 75 | 1013.2 |
| 20260509132032 | 13 | 169 | 0.0 | 0.0 | 0.00 | 0.00 | 0.00 | 73 | 1013.1 |
| 20260509131522 | 13 | 169 | 0.0 | 0.0 | 0.00 | 0.00 | 0.00 | 73 | 1013.1 |
| 20260509131019 | 13 | 168 | 1.6 | 1.6 | 0.00 | 0.00 | 0.00 | 74 | 1013.1 |
| 20260509130514 | 13 | 178 | 3.2 | 3.2 | 0.00 | 0.00 | 0.00 | 74 | 1013.1 |
| 20260509130012 | 13 | 138 | 0.0 | 1.6 | 0.00 | 0.00 | 0.00 | 73 | 1013.2 |
| 20260509125508 | 13 | 69 | 1.6 | 1.6 | 0.00 | 0.00 | 0.00 | 73 | 1013.0 |
| 20260509125004 | 13 | 142 | 1.6 | 1.6 | 0.00 | 0.00 | 0.00 | 74 | 1013.1 |
| 20260509124501 | 13 | 140 | 1.6 | 1.6 | 0.00 | 0.00 | 0.00 | 72 | 1012.9 |
| 20260509123958 | 13 | 167 | 1.6 | 1.6 | 0.00 | 0.00 | 0.00 | 73 | 1013.1 |
| 20260509123456 | 13 | 70 | 1.6 | 1.6 | 0.00 | 0.00 | 0.00 | 72 | 1012.9 |
| 20260509122951 | 13 | 143 | 1.6 | 1.6 | 0.00 | 0.00 | 0.00 | 73 | 1013.1 |
| 20260509122449 | 13 | 174 | 1.6 | 1.6 | 0.00 | 0.00 | 0.00 | 71 | 1013.1 |
| 20260509121945 | 13 | 113 | 0.0 | 0.0 | 0.00 | 0.00 | 0.00 | 72 | 1013.1 |
| 20260509121442 | 13 | 184 | 1.6 | 1.6 | 0.00 | 0.00 | 0.00 | 71 | 1013.0 |
| 20260509120940 | 13 | 158 | 0.0 | 0.0 | 0.00 | 0.00 | 0.00 | 71 | 1013.1 |
| 20260509120438 | 13 | 103 | 1.6 | 1.6 | 0.00 | 0.00 | 0.00 | 71 | 1012.8 |
| 20260509115936 | 13 | 103 | 1.6 | 1.6 | 0.00 | 0.00 | 0.00 | 70 | 1013.2 |
| 20260509115433 | 13 | 142 | 0.0 | 1.6 | 0.00 | 0.00 | 0.00 | 71 | 1013.2 |
| 20260509114930 | 13 | 142 | 1.6 | 3.2 | 0.00 | 0.00 | 0.00 | 72 | 1013.1 |
| 20260509114429 | 13 | 151 | 3.2 | 3.2 | 0.00 | 0.00 | 0.00 | 71 | 1013.1 |
| 20260509113928 | 13 | 193 | 3.2 | 3.2 | 0.00 | 0.00 | 0.00 | 70 | 1013.1 |
| 20260509113425 | 13 | 49 | 0.0 | 0.0 | 0.00 | 0.00 | 0.00 | 73 | 1012.9 |
| 20260509112922 | 13 | 83 | 1.6 | 3.2 | 0.00 | 0.00 | 0.00 | 74 | 1012.7 |
| 20260509112419 | 12 | 86 | 1.6 | 3.2 | 0.00 | 0.00 | 0.00 | 73 | 1012.8 |
| 20260509111916 | 12 | 81 | 1.6 | 1.6 | 0.00 | 0.00 | 0.00 | 72 | 1012.5 |
| 20260509111413 | 12 | 80 | 0.0 | 0.0 | 0.00 | 0.00 | 0.00 | 75 | 1012.5 |
| 20260509110910 | 12 | 80 | 0.0 | 0.0 | 0.00 | 0.00 | 0.00 | 72 | 1012.4 |
| 20260509110406 | 12 | 80 | 1.6 | 1.6 | 0.00 | 0.00 | 0.00 | 72 | 1012.6 |
| 20260509105904 | 12 | 80 | 0.0 | 0.0 | 0.00 | 0.00 | 0.00 | 73 | 1012.7 |
| 20260509105402 | 12 | 280 | 1.6 | 1.6 | 0.00 | 0.00 | 0.00 | 74 | 1012.4 |
| 20260509104859 | 12 | 281 | 0.0 | 0.0 | 0.00 | 0.00 | 0.00 | 74 | 1012.2 |
| 20260509104356 | 12 | 281 | 0.0 | 0.0 | 0.00 | 0.00 | 0.00 | 76 | 1012.2 |
| 20260509103853 | 12 | 281 | 0.0 | 0.0 | 0.00 | 0.00 | 0.00 | 76 | 1012.3 |
| 20260509103350 | 12 | 280 | 0.0 | 0.0 | 0.00 | 0.00 | 0.00 | 75 | 1012.2 |
| 20260509102849 | 12 | 280 | 1.6 | 1.6 | 0.00 | 0.00 | 0.00 | 74 | 1012.2 |
| 20260509102346 | 12 | 272 | 4.8 | 4.8 | 0.00 | 0.00 | 0.00 | 72 | 1012.2 |
| 20260509101841 | 12 | 225 | 6.4 | 8.0 | 0.00 | 0.00 | 0.00 | 72 | 1012.3 |
| 20260509101338 | 12 | 245 | 4.8 | 8.0 | 0.00 | 0.00 | 0.00 | 72 | 1012.2 |
| 20260509100836 | 12 | 249 | 4.8 | 8.0 | 0.00 | 0.00 | 0.00 | 73 | 1012.2 |
| 20260509100333 | 12 | 242 | 0.0 | 0.0 | 0.00 | 0.00 | 0.00 | 73 | 1012.1 |
| 20260509095830 | 12 | 264 | 4.8 | 4.8 | 0.00 | 0.00 | 0.00 | 72 | 1012.3 |
| 20260509095327 | 12 | 260 | 3.2 | 3.2 | 0.00 | 0.00 | 0.00 | 72 | 1012.2 |
| 20260509094824 | 12 | 233 | 3.2 | 3.2 | 0.00 | 0.00 | 0.00 | 71 | 1012.2 |
| 20260509094320 | 12 | 250 | 1.6 | 1.6 | 0.00 | 0.00 | 0.00 | 71 | 1012.2 |
| 20260509093818 | 12 | 211 | 1.6 | 3.2 | 0.00 | 0.00 | 0.00 | 71 | 1012.3 |
| 20260509093315 | 12 | 261 | 3.2 | 3.2 | 0.00 | 0.00 | 0.00 | 70 | 1012.2 |
| 20260509092814 | 12 | 212 | 1.6 | 1.6 | 0.00 | 0.00 | 0.00 | 71 | 1012.2 |
| 20260509092311 | 12 | 180 | 0.0 | 1.6 | 0.00 | 0.00 | 0.00 | 71 | 1012.4 |
| 20260509091809 | 12 | 229 | 3.2 | 3.2 | 0.00 | 0.00 | 0.00 | 70 | 1012.3 |
| 20260509091305 | 12 | 186 | 0.0 | 0.0 | 0.00 | 0.00 | 0.00 | 71 | 1012.2 |
| 20260509090803 | 12 | 238 | 1.6 | 3.2 | 0.00 | 0.00 | 0.00 | 70 | 1012.1 |
| 20260509090300 | 12 | 268 | 6.4 | 8.0 | 0.00 | 0.00 | 0.00 | 70 | 1012.2 |
| 20260509085757 | 13 | 237 | 4.8 | 4.8 | 0.00 | 0.00 | 0.00 | 70 | 1012.3 |
| 20260509085255 | 13 | 165 | 4.8 | 8.0 | 0.00 | 0.00 | 0.00 | 69 | 1012.3 |
| 20260509084751 | 13 | 239 | 3.2 | 3.2 | 0.00 | 0.00 | 0.00 | 70 | 1012.4 |
| 20260509084248 | 13 | 197 | 1.6 | 1.6 | 0.00 | 0.00 | 0.00 | 70 | 1012.3 |
| 20260509083746 | 13 | 247 | 4.8 | 4.8 | 0.00 | 0.00 | 0.00 | 69 | 1012.5 |
| 20260509083242 | 12 | 218 | 3.2 | 3.2 | 0.00 | 0.00 | 0.00 | 70 | 1012.5 |
| 20260509082739 | 12 | 172 | 1.6 | 3.2 | 0.00 | 0.00 | 0.00 | 70 | 1012.7 |
| 20260509082235 | 12 | 260 | 1.6 | 1.6 | 0.00 | 0.00 | 0.00 | 70 | 1012.8 |
| 20260509081732 | 12 | 220 | 4.8 | 4.8 | 0.00 | 0.00 | 0.00 | 70 | 1012.6 |
| 20260509081230 | 12 | 190 | 3.2 | 3.2 | 0.00 | 0.00 | 0.00 | 70 | 1012.5 |
| 20260509080728 | 12 | 107 | 1.6 | 1.6 | 0.00 | 0.00 | 0.00 | 70 | 1012.4 |
| 20260509080225 | 12 | 84 | 0.0 | 1.6 | 0.00 | 0.00 | 0.00 | 70 | 1012.8 |
| 20260509075723 | 12 | 130 | 0.0 | 1.6 | 0.00 | 0.00 | 0.00 | 70 | 1013.0 |
| 20260509075221 | 12 | 139 | 1.6 | 3.2 | 0.00 | 0.00 | 0.00 | 71 | 1012.8 |
| 20260509074718 | 12 | 63 | 1.6 | 1.6 | 0.00 | 0.00 | 0.00 | 71 | 1012.6 |
| 20260509074215 | 12 | 131 | 0.0 | 1.6 | 0.00 | 0.00 | 0.00 | 70 | 1012.7 |
| 20260509073711 | 12 | 104 | 1.6 | 1.6 | 0.00 | 0.00 | 0.00 | 70 | 1012.5 |